Location: *
(44.1392°N, 4.8079°E)
Time: 06:51:24
(UTC+00:00)

USA 306 - Visible Passes

Search period start: 26 October 2021 00:00
Search period end: 05 November 2021 00:00
Orbit: 564 x 573 km, 54.0° (Epoch: 24 September)

Date Brightness Start Highest point End Pass type
(mag) Time Alt. Az. Time Alt. Az. Time Alt. Az.
26 Oct 5.6 02:59:42 17° E 02:59:42 17° E 03:01:02 10° ENE visible
26 Oct 3.0 04:35:45 37° W 04:37:08 57° NNW 04:41:19 10° NE visible
27 Oct 5.6 03:00:28 18° ENE 03:00:28 18° ENE 03:01:42 10° ENE visible
27 Oct 3.4 04:36:31 35° WNW 04:37:36 43° NNW 04:41:40 10° NE visible
28 Oct 5.6 03:01:09 17° ENE 03:01:09 17° ENE 03:02:12 10° ENE visible
28 Oct 3.7 04:37:11 31° NW 04:38:06 34° NNW 04:42:01 10° NE visible
29 Oct 5.7 03:01:44 16° NE 03:01:44 16° NE 03:02:38 10° NE visible
29 Oct 4.0 04:37:47 27° NW 04:38:39 29° NNW 04:42:23 10° NE visible
30 Oct 5.7 03:02:16 15° NE 03:02:16 15° NE 03:03:00 10° NE visible
30 Oct 4.2 04:38:18 23° NW 04:39:13 25° NNW 04:42:46 10° NE visible
31 Oct 5.8 03:02:45 13° NE 03:02:45 13° NE 03:03:20 10° NE visible
31 Oct 4.4 04:38:47 21° NNW 04:39:47 23° N 04:43:11 10° NE visible
01 Nov 5.9 03:03:12 13° NE 03:03:12 13° NE 03:03:39 10° NE visible
01 Nov 4.5 04:39:14 19° NNW 04:40:23 22° N 04:43:41 10° NE visible
02 Nov 5.9 03:03:37 12° NE 03:03:37 12° NE 03:03:58 10° NE visible
02 Nov 4.6 04:39:39 18° NNW 04:40:58 21° N 04:44:15 10° NE visible
03 Nov 5.9 03:04:02 11° NE 03:04:02 11° NE 03:04:18 10° NE visible
03 Nov 4.6 04:40:04 18° NNW 04:41:33 22° N 04:44:52 10° ENE visible
04 Nov 6.0 03:04:26 11° NE 03:04:26 11° NE 03:04:39 10° NE visible
04 Nov 4.6 04:40:28 19° NNW 04:42:07 23° N 04:45:32 10° ENE visible
